Houma, LA

9:16 PM CDT on May 26, 2018 (GMT -0500)
Houma-terrebonne

Weather History for KHUM - March, 2014

Change the Weather History Date:

Tuesday, March 11, 2014

  Actual Average Record
Temperature  
Mean Temperature 65 °F -  
Max Temperature 71 °F 73 °F 83 °F (1974)
Min Temperature 59 °F 53 °F 30 °F (1934)
Growing Degree Days 15 (Base 50)    
Moisture  
Dew Point 61 °F    
Average Humidity 89    
Maximum Humidity 94    
Minimum Humidity 69    
Precipitation  
Precipitation 0.00 in - - ()
Sea Level Pressure  
Sea Level Pressure 29.82 in    
Wind  
Wind Speed 4 mph (SSW)    
Max Wind Speed 14 mph    
Max Gust Speed -    
Visibility 6 miles    
Events Rain    
Averages and records for this station are not official NWS values.
T = Trace of Precipitation, MM = Missing Value Source: NWS Daily Summary

Daily Weather History Graph

Daily Weather History Graph

Search for Another Location

Airport or City:

Astronomy

Mar. 11, 2014 Rise Set
Actual Time 7:17 AM CDT 7:08 PM CDT
Civil Twilight 6:53 AM CDT 7:32 PM CDT
Nautical Twilight 6:25 AM CDT 7:59 PM CDT
Astronomical Twilight 5:58 AM CDT 8:27 PM CDT
Moon 3:00 PM CDT (3/11) 3:54 AM CDT (3/11)
Length of Visible Light 12h 39m
Length of Day
11h 51m
Waxing Gibbous, 78% of the Moon is Illuminated
Mar 11
Waxing Gibbous
Mar 16
Full
Mar 23
Last Quarter
Mar 30
New
Apr 7
First Quarter

Hourly Weather History & Observations

Time (CDT) Temp. Dew Point Humidity Pressure Visibility Wind Dir Wind Speed Gust Speed Precip Events Conditions
12:15 AM 64.4 °F 58.8 °F 82% 29.98 in 10.0 mi SSE 4.6 mph - N/A   Unknown
12:35 AM 64.4 °F 59.0 °F 83% 29.97 in 10.0 mi SE 4.6 mph - N/A   Unknown
12:55 AM 63.9 °F 59.4 °F 85% 29.96 in 10.0 mi SE 4.6 mph - N/A   Unknown
1:15 AM 63.9 °F 59.9 °F 87% 29.95 in 7.0 mi Calm Calm - N/A   Unknown
1:35 AM 63.7 °F 59.9 °F 87% 29.94 in 7.0 mi SE 3.5 mph - N/A   Unknown
1:55 AM 63.0 °F 59.9 °F 90% 29.93 in 7.0 mi SE 4.6 mph - N/A   Unknown
2:15 AM 63.0 °F 60.1 °F 90% 29.91 in 7.0 mi SE 4.6 mph - N/A   Unknown
2:35 AM 63.1 °F 60.6 °F 91% 29.90 in 7.0 mi ESE 4.6 mph - N/A   Unknown
2:55 AM 63.1 °F 60.8 °F 92% 29.89 in 7.0 mi Calm Calm - N/A   Unknown
3:15 AM 63.9 °F 61.5 °F 92% 29.88 in 7.0 mi Calm Calm - N/A   Unknown
3:35 AM 64.6 °F 61.7 °F 90% 29.88 in 7.0 mi Calm Calm - N/A   Unknown
3:55 AM 64.4 °F 61.3 °F 90% 29.87 in 7.0 mi Calm Calm - N/A   Unknown
4:15 AM 64.4 °F 61.7 °F 91% 29.87 in 7.0 mi Calm Calm - N/A   Unknown
4:35 AM 64.6 °F 61.7 °F 90% 29.86 in 7.0 mi Calm Calm - N/A   Unknown
4:55 AM 64.4 °F 61.3 °F 90% 29.86 in 5.0 mi Calm Calm - N/A   Mist
5:15 AM 64.4 °F 61.7 °F 91% 29.86 in 7.0 mi Calm Calm - N/A   Unknown
5:35 AM 64.4 °F 61.3 °F 90% 29.85 in 4.0 mi Calm Calm - N/A   Mist
5:55 AM 64.4 °F 60.8 °F 88% 29.86 in 5.0 mi ENE 4.6 mph - N/A   Scattered Clouds
6:50 AM 64.4 °F 62.6 °F 94% 29.86 in 5.0 mi ESE 4.6 mph - N/A Rain Light Rain
7:50 AM 64.4 °F 62.6 °F 94% 29.85 in 5.0 mi ESE 4.6 mph - N/A Rain Light Rain
8:50 AM 66.2 °F 62.6 °F 88% 29.86 in 5.0 mi Calm Calm - N/A Rain Light Rain
9:05 AM 66.2 °F 62.6 °F 88% 29.86 in 3.0 mi Calm Calm - N/A Rain Light Rain
9:47 AM 66.2 °F 64.4 °F 94% 29.87 in 1.0 mi South 13.8 mph - N/A Rain Heavy Rain
10:15 AM 64.4 °F 62.6 °F 94% 29.86 in 3.0 mi SSE 5.8 mph - N/A Rain Light Rain
10:50 AM 66.2 °F 64.4 °F 94% 29.83 in 5.0 mi SE 5.8 mph - N/A   Drizzle
11:49 AM 66.2 °F 64.4 °F 94% 29.78 in 7.0 mi East 11.5 mph - N/A   Mostly Cloudy
12:50 PM 66.2 °F 64.4 °F 94% 29.81 in 7.0 mi WSW 9.2 mph - N/A   Mostly Cloudy
1:25 PM 66.2 °F 64.4 °F 94% 29.81 in 7.0 mi South 9.2 mph - N/A   Mostly Cloudy
1:50 PM 66.2 °F 64.4 °F 94% 29.78 in 7.0 mi South 4.6 mph - N/A   Mostly Cloudy
2:50 PM 68.0 °F 64.4 °F 88% 29.74 in 7.0 mi Calm Calm - N/A   Mostly Cloudy
3:48 PM 69.8 °F 62.6 °F 78% 29.74 in 7.0 mi SW 5.8 mph - N/A   Mostly Cloudy
4:53 PM 71.6 °F 60.8 °F 69% 29.72 in 7.0 mi West 9.2 mph - N/A   Mostly Cloudy
5:48 PM 71.6 °F 60.8 °F 69% 29.71 in 7.0 mi WSW 9.2 mph - N/A   Mostly Cloudy
6:48 PM 69.8 °F 60.8 °F 73% 29.72 in 7.0 mi WSW 9.2 mph - N/A   Mostly Cloudy
7:15 PM 68.0 °F 60.8 °F 78% 29.71 in 7.0 mi WSW 5.8 mph - N/A   Unknown
7:35 PM 66.4 °F 60.8 °F 82% 29.71 in 10.0 mi WSW 4.6 mph - N/A   Unknown
7:55 PM 65.3 °F 60.8 °F 85% 29.72 in 7.0 mi SW 3.5 mph - N/A   Unknown
8:15 PM 64.0 °F 60.4 °F 88% 29.73 in 10.0 mi SW 4.6 mph - N/A   Unknown
8:35 PM 63.5 °F 60.3 °F 89% 29.74 in 10.0 mi WSW 4.6 mph - N/A   Unknown
8:55 PM 62.8 °F 59.9 °F 90% 29.74 in 7.0 mi SW 4.6 mph - N/A   Unknown
9:15 PM 62.1 °F 59.2 °F 90% 29.74 in 7.0 mi WSW 6.9 mph - N/A   Unknown
9:35 PM 61.0 °F 58.5 °F 91% 29.74 in 4.0 mi SW 4.6 mph - N/A   Mist
9:55 PM 60.8 °F 58.3 °F 91% 29.75 in 3.0 mi SW 6.9 mph - N/A   Mist
10:15 PM 59.9 °F 57.6 °F 92% 29.76 in 7.0 mi WSW 9.2 mph - N/A   Unknown
10:35 PM 59.4 °F 57.2 °F 93% 29.77 in 1.8 mi WSW 6.9 mph - N/A   Mist
10:55 PM 59.0 °F 56.8 °F 93% 29.77 in 1.8 mi SW 4.6 mph - N/A   Mist
11:15 PM 59.4 °F 57.4 °F 93% 29.77 in 0.8 mi SSW 3.5 mph - N/A   Mist
11:35 PM 59.9 °F 57.7 °F 93% 29.77 in 1.2 mi SW 4.6 mph - N/A   Mist
11:55 PM 59.9 °F 58.1 °F 94% 29.78 in 1.5 mi WSW 6.9 mph - N/A   Mist